Tracking 20942 objects as of 10-Jul-2020
HD Live streaming from Space Station
objects crossing your sky now

COSMOS 1153

Track COSMOS 1153 now!
10-day predictions
COSMOS 1153 is classified as:


NORAD ID: 11680
Int'l Code: 1980-007A
Perigee: 967.2 km
Apogee: 1,020.1 km
Inclination: 82.9 °
Period: 104.8 minutes
Semi major axis: 7364 km
RCS: 3.444 m2 (large)
Launch date: January 25, 1980
Source: Commonwealth of Independent States (former USSR) (CIS)
Launch site: PLESETSK MISSILE AND SPACE COMPLEX (PKMTR)
aabbcc
Your satellite tracking list
Your tracking list is empty




NASA's NSSDC Master Catalog

Two Line Element Set (TLE):
1 11680U 80007A   20191.84924274 +.00000033 +00000-0 +19600-4 0  9990
2 11680 082.9333 335.5898 0035866 250.2342 218.1337 13.73647258024808
Source of the keplerian elements: AFSPC